Printer-friendly version
Follow the MPC on Twitter Follow the MPC on Facebook The MPC blog
Minor Planet Center

MPEC 2006-A14 : 2005 YP180

The following Minor Planet Electronic Circular may be linked-to from your own Web pages, but must not otherwise be redistributed electronically.

A form allowing access to any MPEC is at the bottom of this page.


Read MPEC 2006-A13 Read MPEC 2006-A15


M.P.E.C. 2006-A14                                Issued 2006 Jan. 4, 12:23 UT

     The Minor Planet Electronic Circulars contain information on unusual
         minor planets and routine data on comets.  They are published
   on behalf of Commission 20 of the International Astronomical Union by the
          Minor Planet Center, Smithsonian Astrophysical Observatory,
                          Cambridge, MA 02138, U.S.A.

                  Supported in part by the Brinson Foundation
                  Supported in part by the TABASGO Foundation
             Prepared using the Tamkin Foundation Computer Network

                              MPC@CFA.HARVARD.EDU
          URL http://cfa-www.harvard.edu/iau/mpc.html  ISSN 1523-6714

                                  2005 YP180

Observations:
     K05YI0P* C2005 12 30.52339 13 38 40.77 -12 23 30.9          19.3 V EA014703
     K05YI0P  C2005 12 30.52918 13 38 39.51 -12 23 31.4          19.7 V EA014703
     K05YI0P  C2005 12 30.53501 13 38 38.25 -12 23 27.7          19.9 V EA014703
     K05YI0P  C2005 12 30.54128 13 38 36.94 -12 23 25.2          19.1 V EA014703
     K05YI0P  C2005 12 30.54503 13 38 36.11 -12 23 24.5          20.1 V EA014703
     K05YI0P  C2005 12 30.54877 13 38 35.16 -12 23 24.4          19.5 V EA014703
     K05YI0P  C2006 01 01.53362 13 31 39.97 -12 11 03.8          19.8 V EA014703
     K05YI0P  C2006 01 01.53539 13 31 39.64 -12 11 04.4          20.5 V EA014703
     K05YI0P  C2006 01 01.53715 13 31 39.25 -12 11 03.0          18.8 V EA014703
     K05YI0P  C2006 01 01.53891 13 31 38.74 -12 11 02.2          19.9 V EA014703
     K05YI0P  C2006 01 02.52524 13 28 15.45 -12 04 51.2          19.7 R EA014711
     K05YI0P  C2006 01 02.52968 13 28 14.44 -12 04 48.6          19.8 R EA014711
     K05YI0P FC2006 01 02.53414 13 28 13.56 -12 04 46.9                 EA014711
     K05YI0P  C2006 01 03.71255 13 24 13.48 -11 56 51.6          19.9 R EA014E12
     K05YI0P  C2006 01 03.71729 13 24 12.64 -11 56 49.4          19.6 R EA014E12
     K05YI0P  C2006 01 04.44067 13 21 45.31 -11 52 32.3          19.7 R EA014854
     K05YI0P  C2006 01 04.44739 13 21 43.98 -11 52 31.1          19.6 R EA014854
     K05YI0P  C2006 01 04.45410 13 21 42.54 -11 52 29.2          19.7 R EA014854

Observer details:
703 Catalina Sky Survey.  Observers R. A. Kowalski, E. J. Christensen.
    Measurers E. C. Beshore, E. J. Christensen, G. J. Garradd, A. D. Grauer,
    R. E. Hill, R. A. Kowalski, S. M. Larson, R. H. McNaught.  0.68-m Schmidt
    + CCD.
711 McDonald Observatory.  Observer J. G. Ries.  0.76-m reflector + CCD
    + prime-focus corrector.
854 Sabino Canyon Observatory, Tucson.  Observer J. E. McGaha.  0.36-m f/10.0
    Schmidt-Cassegrain + CCD.
E12 Siding Spring Survey.  Observer R. H. McNaught.  0.5-m Uppsala Schmidt
    + CCD.

Orbital elements:
2005 YP180                                          PHA, Earth MOID = 0.0168 AU
Epoch 2006 Mar. 6.0 TT = JDT 2453800.5                  MPC
M  66.60357              (2000.0)            P               Q
n   0.59651648     Peri.   91.97657     +0.92724885     -0.36807440
a   1.3976156      Node   289.62568     +0.30792946     +0.85407018
e   0.6275810      Incl.    4.18763     +0.21304698     +0.36753960
P   1.65           H   19.3           G   0.15           U   9
Residuals in seconds of arc
051230 703  0.6-  1.4+    060101 703  0.2+  0.3+    060102 711  0.5-  0.6+
051230 703  0.4-  1.1-    060101 703  1.0+  0.9-    060103 E12  0.7-  0.2-
051230 703  0.1-  0.5+    060101 703  0.8+  0.2-    060103 E12  1.5+  0.2+
051230 703  1.0+  0.7+    060101 703  1.1-  0.0     060104 854  0.7-  1.1+
051230 703  0.9+  0.0     060102 711  0.7-  0.4-    060104 854  0.4+  0.2-
051230 703  0.9-  1.2-    060102 711  1.6-  0.6+    060104 854  0.1-  0.8-

Ephemeris:
2005 YP180               a,e,i = 1.40, 0.63, 4                   q = 0.5212
Date    TT    R. A. (2000) Decl.     Delta      r     Elong.  Phase     V
2006 01 05    13 19.85   -11 48.6    0.360    0.996    81.6    77.5    19.8
2006 01 15    12 45.57   -10 28.9    0.366    1.108   100.0    61.0    19.5
2006 01 25    12 08.05   -08 25.2    0.375    1.213   119.3    45.0    19.3
2006 02 04    11 27.41   -05 27.5    0.396    1.313   139.5    29.2    19.2
2006 02 14    10 48.14   -01 58.3    0.439    1.406   159.0    14.6    19.1
2006 02 24    10 15.51   +01 21.8    0.508    1.494   171.2     5.8    19.2
2006 03 06    09 52.15   +04 04.3    0.603    1.576   161.7    11.4    19.9
2006 03 16    09 37.86   +06 01.2    0.720    1.652   148.7    18.2    20.6
2006 03 26    09 30.95   +07 17.8    0.853    1.723   137.1    23.2    21.2
2006 04 05    09 29.66   +08 02.3    1.000    1.789   126.9    26.6    21.8

Timothy B. Spahr             (C) Copyright 2006 MPC           M.P.E.C. 2006-A14

Read MPEC 2006-A13 Read MPEC 2006-A15


MPEC number:

Enter an MPEC number in one of the following forms:

  • 1997-B01 (the full form)
  • J97B01 (the packed version of the full form)
  • B01 (the abbreviated form)

Valid HTML 4.01!